Location: Palmerston North
(40.3500°S, 175.6170°E)
Time: 03:58:27
(UTC+13:00)

Cosmos 1151 Rocket - Pass Details

Date: 24 January 2019
Orbit: 591 x 617 km, 82.5° (Epoch: 18 February)

Event Time Altitude Azimuth Distance (km) Brightness Sun altitude
Rises 21:48:56 0° 353° (N) 2,824 6.1 -11.4°
Reaches altitude 10° 21:51:07 10° 352° (N) 1,934 5.3 -11.7°
Maximum altitude 21:55:24 86° 263° (W) 613 3.0 -12.4°
Drops below altitude 10° 21:59:47 10° 173° (S) 1,975 6.1 -13.0°
Sets 22:02:01 0° 172° (S) 2,891 7.0 -13.3°
